Location: Aegean Hills Park
(33.6039°N, 117.6881°W)
Time: 03:25:47
(UTC+00:00)

Daily predictions for brighter satellites

Satellite Brightness Start Highest point End
(mag) Time Altitude Azimuth Time Altitude Azimuth Time Altitude Azimuth
Milstar 3 3.4 01:20:06 10° WSW 01:27:25 50° S 01:33:52 10° E
Cosmos 2266 Rocket 4.1 01:21:27 10° N 01:27:43 83° E 01:34:04 10° S
H-2A R/B 4.5 01:26:31 10° SSW 01:30:33 37° W 01:34:42 10° NNW
Cosmos 1400 Rocket 3.7 01:27:01 10° SSE 01:30:34 28° E 01:34:07 10° NNE
Cosmos 1809 Rocket 4.4 01:25:29 10° N 01:31:38 73° E 01:37:41 10° SSE
CORIOLIS 4.1 01:26:53 10° SSE 01:32:12 80° ENE 01:37:34 10° N
Cosmos 1689 Rocket 2.7 01:29:49 10° NNE 01:32:27 31° E 01:35:03 10° SSE
USA 281 3.3 01:26:16 10° SSE 01:32:50 85° ENE 01:39:25 10° NNW
COSMOS 2487 2.3 01:32:50 10° NNW 01:36:16 79° ENE 01:39:40 10° SSE
Cosmos 1331 Rocket 4.3 01:33:33 10° SSW 01:38:41 71° WNW 01:43:51 10° NNE
YAOGAN 6 4.4 01:38:20 10° SSW 01:41:42 37° W 01:45:08 10° NNW
COSMO-SKYMED 1 2.6 01:37:31 10° NNE 01:41:48 57° E 01:46:03 10° S
OAO 2 Rocket 3.6 01:37:25 10° WSW 01:42:19 57° SSE 01:46:47 12° E
Okean O Rocket 2.3 01:38:06 10° S 01:42:25 61° WSW 01:46:44 10° NNW
YAOGAN 1 3.8 01:48:11 10° ESE 01:51:26 21° ENE 01:54:41 10° NNE
Cosmos 1825 Rocket 3.6 01:49:38 10° N 01:54:06 89° W 01:58:29 10° S
Cosmos 2219 4.2 01:50:27 10° N 01:55:13 26° ENE 01:59:58 10° ESE
Aureole 3 2.8 01:51:50 10° S 01:55:20 58° E 01:58:24 10° NNE
Cosmos 1315 Rocket 4.1 01:56:51 10° SE 01:59:40 19° E 02:00:17 18° ENE
Cosmos 1892 4.0 01:57:24 10° NNE 02:00:20 20° ENE 02:01:24 18° E
Hubble Space Telescope 3.2 01:59:28 10° WSW 02:02:13 17° SSW 02:04:58 10° SSE
CZ-2D R/B 3.5 01:58:41 10° SSE 02:02:17 43° ENE 02:05:55 10° N
Cosmos 1726 Rocket 4.1 01:59:10 10° SSW 02:03:25 60° W 02:07:44 10° N
S3M 4.4 01:58:11 10° SSE 02:03:41 37° E 02:09:14 10° NNE
Delta 2 Rocket 4.0 01:59:07 10° WNW 02:04:24 76° N 02:08:24 20° E
CZ-2C R/B 3.8 01:59:24 10° SE 02:04:37 36° ENE 02:09:47 10° N
Cosmos 1300 3.7 02:01:56 10° SSW 02:05:37 49° W 02:09:20 10° N
Cosmos 1302 Rocket 4.2 02:03:02 10° SSW 02:08:16 77° WNW 02:13:34 10° NNE
Cosmos 2369 4.4 02:05:30 10° SSE 02:10:31 32° ESE 02:14:26 15° NE
Atlas Centaur 2 3.4 02:04:03 10° WSW 02:12:13 55° SSE 02:17:56 21° E
Okean-O 2.8 02:08:39 10° SSE 02:12:54 49° ENE 02:17:11 10° N
Meteor 2-10 Rocket 3.8 02:08:04 10° SSE 02:13:14 45° E 02:18:12 10° NNE
Cosmos 1417 Rocket 4.5 02:09:15 10° S 02:15:21 62° E 02:21:33 10° NNE
Timation 2 Rocket 4.1 02:09:10 10° NNW 02:15:47 63° ENE 02:22:34 10° SSE
ARGOS 4.2 02:18:06 23° ENE 02:18:06 23° ENE 02:22:14 10° NNE
BREEZE-M DEB (TANK) 4.0 02:15:40 10° SSW 02:19:26 21° SSE 02:19:43 21° SE
BREEZE-M TANK 4.3 02:15:30 10° WNW 02:21:09 23° N 02:23:05 17° NNE
Meteor 2-1 Rocket 4.3 02:17:25 10° SSE 02:22:42 48° E 02:27:59 10° NNE
NOSS 3-3 (A) 3.7 02:18:42 10° SSW 02:24:13 65° ESE 02:29:21 15° NE
NOSS 3-3 (C) 3.8 02:18:46 10° SSW 02:24:20 65° ESE 02:29:28 15° NE
Elektron 3 4.3 02:20:09 10° NW 02:24:42 70° WSW 02:26:51 18° SSE
Cosmos 1656 3.8 02:20:21 10° SSW 02:25:51 74° WNW 02:31:28 10° NNE
MOS 1 Rocket 3.4 02:24:40 10° NNE 02:29:21 59° E 02:34:18 10° S
Cosmos 2227 Rocket 2.6 02:26:21 10° N 02:31:39 39° ENE 02:33:07 33° E
CSL-04 Rocket 4.0 02:27:50 10° SE 02:33:05 44° ENE 02:38:18 10° N
Cosmos 1553 Rocket 4.1 02:27:39 10° S 02:34:03 80° W 02:40:24 10° N
DMSP B5D1-3 4.4 02:28:59 10° NNE 02:34:09 75° ESE 02:39:17 10° S
OAO 3 Rocket 3.1 02:32:42 10° W 02:37:30 82° SSW 02:38:53 46° ESE
Helios 1A Rocket 3.3 02:34:22 10° S 02:38:28 66° W 02:42:34 10° NNW
GEOS 3 Rocket 4.3 02:38:26 34° ENE 02:38:47 34° NE 02:43:33 10° NNW
Cosmos 1939 Rocket 4.3 02:35:45 10° SSW 02:39:30 38° W 02:43:13 10° NNW
SL-08 ROCKET BODY 4.3 02:33:40 10° N 02:39:46 67° E 02:45:54 10° SSE
Cosmos 1340 2.7 02:36:11 10° N 02:39:58 78° W 02:43:43 10° S
BREEZE-M DEB (TANK) 3.9 02:38:15 10° WSW 02:41:53 78° NW 02:50:32 16° NE
Cosmos 1697 Rocket 2.5 02:37:47 10° SSW 02:43:22 79° ESE 02:47:49 17° NNE
ASTRO E2 3.0 02:42:21 10° WSW 02:46:10 51° S 02:46:10 51° S
OAO 1 Rocket 4.4 02:41:02 10° W 02:46:24 86° NNW 02:47:44 52° ENE
H-2A R/B 2.1 02:43:42 18° SSE 02:47:40 61° ENE 02:53:02 10° N
Cosmos 1992 Rocket 3.9 02:44:12 10° SSW 02:49:25 84° WNW 02:54:08 13° NNE
Cosmos 220 Rocket 4.2 02:45:12 10° SSW 02:49:29 72° WNW 02:52:04 24° N
Cosmos 1455 2.3 02:51:21 10° SSW 02:54:54 70° WSW 02:54:54 70° WSW
Meteor 2-15 Rocket 4.4 02:49:12 10° S 02:55:20 87° W 03:01:32 10° N
CZ-4 R/B 2.5 02:56:23 10° S 03:00:07 42° W 03:03:49 10° NNW
GPS 2-04 Rocket1 3.7 03:00:04 10° SW 03:03:00 40° SSW 03:03:00 40° SSW
Cosmos 44 Rocket 3.4 03:00:31 10° SSW 03:04:22 60° S 03:04:22 60° S
Cosmos 1980 Rocket 2.4 02:59:43 10° S 03:04:12 51° SSE 03:04:12 51° SSE
Cosmos 2058 4.5 03:01:17 10° N 03:03:08 26° N 03:03:08 26° N
Cosmos 1745 Rocket 4.0 03:00:46 10° N 03:07:05 84° W 03:13:26 10° S
CSL-04 Debris 4.2 03:06:01 10° S 03:11:24 75° WSW 03:16:52 10° NNW
Cosmos 2297 Rocket 2.3 03:06:12 10° NNW 03:11:51 73° WSW 03:14:00 39° S
Cosmos 2360 4.4 03:10:00 10° SSW 03:15:41 72° WNW 03:17:41 41° N
OAO 2 Rocket 4.1 03:22:05 10° W 03:25:44 48° W 03:25:44 48° W
SeaSat 1 4.2 03:31:00 24° NNW 03:31:00 24° NNW 03:32:57 10° NNW
Cosmos 2278 4.1 03:25:44 10° SSW 03:30:21 58° SW 03:30:21 58° SW
Cosmos 2315 Rocket 4.3 03:38:38 10° SSW 03:49:08 20° N 03:50:53 10° N
Atlas Centaur 2 3.3 03:53:26 10° W 04:00:32 60° SW 04:00:32 60° SW
Milstar 3 3.7 04:03:53 10° W 04:08:18 41° SW 04:08:18 41° SW
Cosmos 2227 Rocket 4.2 04:11:03 10° NW 04:15:01 23° W 04:15:01 23° W
CENTAUR R/B 4.4 10:44:29 22° NE 10:44:29 22° NE 10:46:47 10° NE
CZ-3 R/B 4.3 10:42:21 50° SW 10:51:17 63° S 11:03:18 10° E
ATLAS 3B R/B 3.8 11:23:35 23° SSE 11:26:57 37° ESE 11:32:54 10° NE
COSMOS 2406 3.8 11:30:19 53° ENE 11:30:19 53° ENE 11:35:01 10° NNE
Cosmos 2344 4.3 11:37:02 35° NNW 11:37:02 35° NNW 11:42:18 10° NNE
Cosmos 2279 Rocket 4.3 11:30:53 10° N 11:37:00 61° E 11:43:06 10° SSE
ADEOS Rocket 3.3 11:39:39 10° SSE 11:45:02 56° ENE 11:50:25 10° N
Cosmos 1461 4.2 11:46:38 42° ESE 11:46:38 42° ESE 11:50:45 10° NE
ISS -0.6 11:52:01 11° NE 11:52:01 11° NE 11:52:09 10° NE
